Skip Page Navigation
NASA JPL Caltech
NASA Logo - Jet Propulsion Laboratory + View the NASA Portal
+ Near-Earth Object (NEO) Program
Search JPL
JPL Home Earth Solar System Stars & Galaxies Technology
JPL Solar System Dynamics
BODIES ORBITS EPHEMERIDES TOOLS PHYSICAL DATA DISCOVERY FAQ SITE MAP
JPL Small-Body Database Browser
Search: [ help ]  
13174 Timossi (1996 CT8)
Classification: Main-belt Asteroid          SPK-ID: 2013174
Ephemeris | Orbit Diagram | Orbital Elements | Physical Parameters | Discovery Circumstances ]

[ show orbit diagram ]
Orbital Elements at Epoch 2456800.5 (2014-May-23.0) TDB
Reference: JPL 11 (heliocentric ecliptic J2000)
 Element Value Uncertainty (1-sigma)   Units 
e .1058497507240185 6.6545e-08  
a 2.652412577395078 2.3663e-08 AU
q 2.371655367260558 1.6936e-07 AU
i 15.15216255599168 6.3511e-06 deg
node 136.873485406461 2.3705e-05 deg
peri 291.7399470724398 3.8683e-05 deg
M 152.3090748465854 3.2781e-05 deg
tp 2456132.950731763777
(2012-Jul-24.45073176)
0.00014158 JED
period 1577.829402529707
4.32
2.1115e-05
5.781e-08
d
yr
n .2281615486584405 3.0533e-09 deg/d
Q 2.933169787529599 2.6168e-08 AU
  Orbit Determination Parameters
   # obs. used (total)      686  
   data-arc span      6712 days (18.38 yr)  
   first obs. used      1996-02-14  
   last obs. used      2014-07-01  
   planetary ephem.      DE431  
   SB-pert. ephem.      SB431-BIG16  
   condition code      0  
   fit RMS      .52493  
   data source      ORB  
   producer      Otto Matic  
   solution date      2014-Jul-14 12:29:57  

Additional Information
 Earth MOID = 1.43141 AU 
 T_jup = 3.332 
[ show covariance matrix ]

Ephemeris | Orbit Diagram | Orbital Elements | Physical Parameters | Discovery Circumstances ]

Physical Parameter Table
Parameter Symbol Value Units Sigma Reference Notes
absolute magnitude H 14.2 mag n/a MPO263467  

13174 Timossi           Discovered 1996 Feb. 14 by M. Tombelli and U. Munari at Cima Ekar.
Aldo Timossi (b. 1946) is a promoter of conventions, workshops and scientific meetings related to the advancement of planetary and minor planet study and also of the IMPACT Project (International Monitoring Program for Asteroid and Comet Threat).
NOTE: some special characters may not display properly (any characters within {} are an attempt to place the proper accent above a character)
Reference: 20030501/MPCPages.arcLast Updated: 2003-10-02

Alternate Designations
 1996 CT8 = 1997 LU3 
Ephemeris | Orbit Diagram | Orbital Elements | Physical Parameters | Discovery Circumstances ]
ABOUT SSD CREDITS/AWARDS PRIVACY/COPYRIGHT GLOSSARY LINKS
FirstGov 2014-Jul-24 12:12 UT
(server date/time)  
NASA Home Page
Site Manager:   Donald K. Yeomans
Webmaster  Alan B. Chamberlin